Location: Appingedam
(53.3222°N, 6.8488°E)
Time: 11:22:11
(UTC+00:00)

Helios 1B rocket - Pass Details

Date: 15 May 2026
Orbit: 459 x 466 km, 98.2° (Epoch: 5 June)

Event Time Altitude Azimuth Distance (km) Brightness Sun altitude
Exits shadow 21:22:33 16° 113° (ESE) 1,312 3.8 -12.7°
Maximum altitude 21:24:37 27° 64° (ENE) 933 3.4 -12.8°
Drops below altitude 10° 21:27:40 10° 5° (N) 1,648 5.6 -13.1°
Sets 21:29:54 0° 353° (N) 2,529 7.1 -13.2°
